Regional Weather Roundup
Issued by NWS Cleveland, OH

Home | Current Version | Previous Version | Graphics & Text | Print | Product List | Glossary On
Versions: 1 2 3 4 5 6 7 8 9 10 11 12 13 14 15 16 17 18 19 20 21 22 23 24 25 26 27 28 29 30 31 32 33 34 35 36 37 38 39 40 41 42 43 44 45 46 47 48 49 50
000
ASUS41 KCLE 170102
RWRCLE
OHIO REGIONAL WEATHER ROUNDUP
NATIONAL WEATHER SERVICE CLEVELAND, OH
900 PM EDT MON OCT 16 2017

NOTE: "FAIR" INDICATES FEW OR NO CLOUDS BELOW 12,000 FEET WITH NO
SIGNIFICANT WEATHER AND/OR OBSTRUCTIONS TO VISIBILITY.

OHZ001>008-015>018-024>027-034-035-043-044-170200-
   NORTHWEST OHIO

CITY           SKY/WX    TMP DP  RH WIND       PRES   REMARKS
DEFIANCE       CLEAR     45  40  82 CALM      30.28R
FINDLAY        PTCLDY    46  39  76 S3        30.28R
TOLEDO EXPRESS CLEAR     45  44  97 CALM      30.27S
TOLEDO EXEC    CLEAR     48  40  73 S5        30.28S
LIMA           MOCLDY    48  42  80 S7        30.28R
$$

OHZ009>014-019>023-028>033-038-089-170200-
   NORTHEAST OHIO

CITY           SKY/WX    TMP DP  RH WIND       PRES   REMARKS
CLE-HOPKINS    PTCLDY    45  37  73 S3        30.30S
CLE-LAKEFRONT  CLEAR     53  32  44 CALM      30.28S
CUY CO. ARPT   CLEAR     45  32  61 CALM      30.29S
LORAIN-ELYRIA    N/A    N/A N/A N/A MISG      30.29S
ASHTABULA      PTCLDY    42  38  85 CALM      30.28S
AKRON-CANTON   CLEAR     45  33  63 N5        30.28S
WOOSTER        CLEAR     39  37  92 CALM      30.29S
MANSFIELD      CLEAR     46  36  68 CALM      30.29R
YOUNGSTOWN     CLEAR     41  32  70 CALM      30.28R
$$

OHZ042-051>053-060>062-070>072-077>081-170200-
  SOUTHWEST OHIO

CITY           SKY/WX    TMP DP  RH WIND       PRES   REMARKS
CINC-COVINGTON CLEAR     47  41  80 CALM      30.30R
CINC-LUNKEN    CLEAR     47  43  86 CALM      30.31S
HAMILTON       CLEAR     43  40  89 CALM      30.31R
DAYTON         CLEAR     48  38  68 CALM      30.30S
WRIGHT-PAT AFB CLEAR     47  40  78 CALM      30.29S
DAYTON GENERAL CLEAR     49  38  65 CALM      30.29S
WILMINGTON     CLEAR     45  41  86 CALM      30.30R
$$

OHZ036-037-039>041-045>050-054>059-063>069-073>076-082>088-170200-
  CENTRAL AND SOUTHEAST OHIO

CITY           SKY/WX    TMP DP  RH WIND       PRES   REMARKS
COLUMBUS       CLEAR     50  40  68 CALM      30.29R
OSU AIRPORT    CLEAR     48  40  73 CALM      30.29S
BOLTON FIELD   CLEAR     44  41  91 CALM      30.30R
RICKENBACK AFB PTCLDY    48  38  68 CALM      30.29S
NEWARK         CLEAR     45  40  82 CALM      30.29R
MARION         CLEAR     47  38  71 CALM      30.29S
LANCASTER      CLEAR     43  40  89 CALM      30.30R
ZANESVILLE     CLEAR     47  39  74 CALM      30.29R
NEW PHILLY     NOT AVBL
$$




USA.gov is the U.S. government's official web portal to all federal, state and local government web resources and services.